Regional Weather Roundup
Issued by NWS

Home | Current Version | Previous Version | Text Only | Print | Product List | Glossary Off
Versions: 1 2 3 4 5 6 7 8 9 10 11 12 13 14 15 16 17 18 19 20 21 22 23 24 25 26 27 28 29 30 31 32 33 34 35 36 37 38 39 40 41 42 43 44 45 46 47 48 49 50

197
ASUS43 KLSX 112107
RWRMO

WEATHER SUMMARY FOR MISSOURI
NATIONAL WEATHER SERVICE SPRINGFIELD MO
300 PM CST MON DEC 11 2017

NOTE: "FAIR" INDICATES FEW OR NO CLOUDS BELOW 12,000 FEET WITH NO
       SIGNIFICANT WEATHER AND/OR OBSTRUCTIONS TO VISIBILITY.
       CURRENT SKY AND/OR WEATHER CONDITIONS ARE NOT AVAILABLE FOR
       CHILLICOTHE AND FARMINGTON.

MOZ001>031-035>038-043-044-053-054-112200-
...NORTHERN AND WESTERN MISSOURI...

CITY           SKY/WX    TMP DP  RH WIND       PRES   REMARKS
KANSAS CTY INT PTSUNNY   51  28  41 NW23G40   30.00R
KANSAS C DTWN  MOSUNNY   54  28  36 NW16G31   29.99R
LEE`S SUMMIT   MOSUNNY   54  27  35 NW26G37   29.99R
ST JOSEPH      CLOUDY    51  32  48 NW28G38   30.02R
CHILLICOTHE      N/A     50  30  46 NW20G32   29.95R
KIRKSVILLE     CLOUDY    47  33  58 NW26G39   29.87R

$$
MOZ066>068-077>081-088>096-101>105-112200-
...SOUTHWEST MISSOURI...

CITY           SKY/WX    TMP DP  RH WIND       PRES   REMARKS
SPRINGFIELD    CLOUDY    58  18  21 NW20      29.96R
JOPLIN         PTSUNNY   61  17  18 NW22G33   30.01R
BRANSON        MOSUNNY   64  16  15 NW12G22   29.96S

$$
MOZ032>034-039>042-045>050-055>058-069>072-112200-
...CENTRAL MISSOURI...

CITY           SKY/WX    TMP DP  RH WIND       PRES   REMARKS
COLUMBIA       MOSUNNY   54  28  36 NW26G39   29.88R
JEFFERSON CITY SUNNY     57  27  31 NW21G35   29.89R
ROLLA          SUNNY     53  23  31 W20G32    29.89R
SEDALIA        SUNNY     56  27  32 NW28G37   29.95R
WHITEMAN AFB   PTSUNNY   55  26  33 NW18G35   29.91R
WARRENSBURG    PTSUNNY   54  27  35 W22G30    29.97R
OSAGE BEACH    SUNNY     54  23  30 W12G20    29.93R

$$
MOZ051-052-059>065-112200-
...EAST CENTRAL MISSOURI...

CITY           SKY/WX    TMP DP  RH WIND       PRES   REMARKS
ST LOUIS INTL  MOSUNNY   54  26  34 W26G38    29.79R
SPIRIT OF STL  MOSUNNY   55  27  34 W23G38    29.80R
ST CHARLES     SUNNY     54  26  34 W18G39    29.79R

$$
MOZ072>076-082>087-097>100-106>115-112200-
...SOUTH CENTRAL AND SOUTHEAST MISSOURI...

CITY           SKY/WX    TMP DP  RH WIND       PRES   REMARKS
CAPE GIRARDEAU CLOUDY    59  34  39 SW14      29.78F
FARMINGTON     CLOUDY    59  21  23 NW17G26   29.82R
POPLAR BLUFF   MOSUNNY   64  35  34 SW15      29.80F
WEST PLAINS    SUNNY     65  13  13 NW21G35   29.89R

$$



USA.gov is the U.S. government's official web portal to all federal, state and local government web resources and services.